STARLINK-1752 (46338 NORAD) Tracking and Keplerian Element Data
This shows tracking and keplerian element data for the satellite.
Feedback or suggestion? Click here.
Element | Value |
Catalog | 46338 |
Name | STARLINK-1752 |
Epoch Orbit | 2301 |
Epoch Day | 27.25001157 |
Epoch Year | 2021 |
RAAN | 119.8653 |
Inclination | 53.0573 |
Eccentricity | 0.0001225 |
Argument of Perigee | 79.3894 |
Mean Anonmoly | 77.9089 |
Mean Motion | 15.06418436 |
Decay Rate | -0.00032799 |
L1 | 1 46338U 20062P 21027.25001157 -.00032799 00000-0 -21921-2 0 9996 |
L2 | 2 46338 53.0573 119.8653 0001225 79.3894 77.9089 15.06418436 23016 |
Live tracking and technical data element details for STARLINK-1752 (NORAD 46338). STARLINK-1752 can be tracked NOW for your location showing map with azimuth and elevation plus other details from your city location.
Track the satellite on the map from your city or location and see movement details for azimuth, elevation, latitude, longitude, range, height, and movement on the map or in text.
IsCatalogInMostPopularTable: catalog: 46338, numindb: 51
Update: records affected: 1
GetName: 46338 STARLINK-1752
Hit Count: updated at: Thu, 28 Jan 2021 12:25:32 GMT